This is the latest recevied weather packets stored in our database for station/object SA4AGM-10. If no packets are shown the sender has not sent any weather packets the latest 10 day(s).
| Time | Temp. | Humidity | Pressure | Rain* | Wind** | Luminosity | Snow |
|---|---|---|---|---|---|---|---|
| 1777473499 | 13.33° C | 58% | 1027 hPa | - | - | - | - |
| 1777472599 | 12.78° C | 60% | 1027 hPa | - | - | - | - |
| 1777471699 | 12.78° C | 56% | 1027.1 hPa | - | - | - | - |
| 1777470799 | 13.33° C | 60% | 1027.3 hPa | - | - | - | - |
| 1777469899 | 12.22° C | 60% | 1027.2 hPa | - | - | - | - |
| 1777468999 | 11.67° C | 64% | 1027.5 hPa | - | - | - | - |
| 1777468099 | 12.78° C | 61% | 1027.7 hPa | - | - | - | - |
| 1777467199 | 12.78° C | 59% | 1027.8 hPa | - | - | - | - |
| 1777466299 | 12.22° C | 64% | 1027.9 hPa | - | - | - | - |
| 1777465399 | 11.67° C | 62% | 1028.1 hPa | - | - | - | - |
| 1777464498 | 11.67° C | 63% | 1028.2 hPa | - | - | - | - |
| 1777463598 | 12.22° C | 64% | 1028.4 hPa | - | - | - | - |
| 1777462698 | 12.22° C | 65% | 1028.4 hPa | - | - | - | - |
| 1777461798 | 11.67° C | 69% | 1028.4 hPa | - | - | - | - |
| 1777460898 | 11.67° C | 60% | 1028.5 hPa | - | - | - | - |
| 1777459998 | 12.22° C | 50% | 1028.5 hPa | - | - | - | - |
| 1777459098 | 13.33° C | 50% | 1028.3 hPa | - | - | - | - |
| 1777458198 | 13.33° C | 47% | 1028.3 hPa | - | - | - | - |
| 1777457298 | 13.33° C | 44% | 1028.3 hPa | - | - | - | - |
| 1777456397 | 13.33° C | 46% | 1028.4 hPa | - | - | - | - |
| 1777455497 | 12.78° C | 44% | 1028.3 hPa | - | - | - | - |
| 1777454597 | 12.78° C | 41% | 1028.3 hPa | - | - | - | - |
| 1777453697 | 13.33° C | 40% | 1028.3 hPa | - | - | - | - |
| 1777452797 | 12.78° C | 41% | 1028.3 hPa | - | - | - | - |
| 1777451897 | 12.78° C | 42% | 1028.4 hPa | - | - | - | - |
* Rain since midnight (hover to see other rain measurements)
** Current wind speed in m/s (hover to see current wind gust speed)